Time,TemperatureF,DewpointF,PressureIn,WindDirection,WindDirectionDegrees,WindSpeedMPH,WindSpeedGustMPH,Humidity,HourlyPrecipIn,Conditions,Clouds,dailyrainin,SoftwareType,DateUTC
2013-07-06 00:33:00,63.0,44.0,29.57,North,0,0.0,2.0,50,0.00,,,-99.99,,2013-07-06 07:33:00,
2013-07-06 00:43:00,63.0,44.0,29.57,North,0,0.0,2.0,50,0.00,,,-99.99,,2013-07-06 07:43:00,
2013-07-06 01:33:00,62.0,41.0,29.57,North,-999,0.0,0.0,46,0.00,,,-99.99,,2013-07-06 08:33:00,
2013-07-06 01:43:00,62.0,41.0,29.57,North,-999,0.0,0.0,46,0.00,,,-99.99,,2013-07-06 08:43:00,
2013-07-06 02:33:00,62.0,33.0,29.57,North,-999,0.0,0.0,34,0.00,,,-99.99,,2013-07-06 09:33:00,
2013-07-06 02:43:00,62.0,33.0,29.57,North,-999,0.0,0.0,34,0.00,,,-99.99,,2013-07-06 09:43:00,
2013-07-06 05:33:00,60.0,34.0,29.57,North,0,0.0,1.0,38,0.00,,,-99.99,,2013-07-06 12:33:00,
2013-07-06 05:43:00,60.0,34.0,29.57,North,0,0.0,1.0,38,0.00,,,-99.99,,2013-07-06 12:43:00,
2013-07-06 07:42:00,64.0,34.0,29.58,North,-999,0.0,0.0,32,0.00,,,-99.99,,2013-07-06 14:42:00,
2013-07-06 09:38:00,75.0,31.0,29.60,North,-999,0.0,0.0,20,0.00,,,-99.99,,2013-07-06 16:38:00,
2013-07-06 09:45:00,79.0,36.0,29.59,SW,220,1.0,2.0,21,0.00,,,-99.99,,2013-07-06 16:45:00,
2013-07-06 10:38:00,79.0,36.0,29.59,SW,220,1.0,2.0,21,0.00,,,-99.99,,2013-07-06 17:38:00,
2013-07-06 11:39:00,81.0,36.0,29.59,NNE,30,1.0,4.0,20,0.00,,,-99.99,,2013-07-06 18:39:00,
2013-07-06 12:45:00,79.0,37.0,29.60,North,10,2.0,6.0,22,0.00,,,-99.99,,2013-07-06 19:45:00,
2013-07-06 14:39:00,75.0,43.0,29.60,North,360,2.0,3.0,32,0.00,,,-99.99,,2013-07-06 21:39:00,
2013-07-06 14:45:00,77.0,44.0,29.58,NE,40,3.0,6.0,31,0.00,,,-99.99,,2013-07-06 21:45:00,
2013-07-06 15:38:00,77.0,44.0,29.58,NE,40,3.0,6.0,31,0.00,,,-99.99,,2013-07-06 22:38:00,
2013-07-06 16:39:00,81.0,42.0,29.57,SW,220,1.0,6.0,25,0.00,,,-99.99,,2013-07-06 23:39:00,
2013-07-06 16:45:00,80.0,40.0,29.57,SW,230,1.0,4.0,24,0.00,,,-99.99,,2013-07-06 23:45:00,
2013-07-06 18:37:00,75.0,36.0,29.56,North,-999,0.0,0.0,24,0.00,,,-99.99,,2013-07-07 01:37:00,
2013-07-06 18:45:00,72.0,25.0,29.58,North,-999,0.0,0.0,17,0.00,,,-99.99,,2013-07-07 01:45:00,
2013-07-06 19:35:00,72.0,25.0,29.58,North,-999,0.0,0.0,17,0.00,,,-99.99,,2013-07-07 02:35:00,
2013-07-06 19:45:00,69.0,19.0,29.60,North,0,0.0,2.0,15,0.00,,,-99.99,,2013-07-07 02:45:00,
2013-07-06 22:31:00,65.0,18.0,29.64,North,-999,0.0,0.0,16,0.00,,,-99.99,,2013-07-07 05:31:00,
2013-07-06 22:41:00,65.0,18.0,29.64,North,-999,0.0,0.0,16,0.00,,,-99.99,,2013-07-07 05:41:00,
2013-07-06 23:32:00,62.0,19.0,29.64,North,-999,0.0,0.0,19,0.00,,,-99.99,,2013-07-07 06:32:00,
2013-07-06 23:43:00,62.0,19.0,29.64,North,-999,0.0,0.0,19,0.00,,,-99.99,,2013-07-07 06:43:00,